FloripaSat 1
1 44885U 19093G   25211.82427479  .00005329  00000-0  44503-3 0  9993
2 44885  97.8151 299.5459 0010936  35.3052 324.8893 14.98928076304426
RS-44
1 44909U 19096E   25211.44981840  .00000009  00000-0 -92622-5 0  9996
2 44909  82.5208 193.4806 0217464 176.3338 183.9421 12.79742197261195
UPMSat 2
1 46276U 20061E   25211.48183663  .00102674  00000-0  65832-3 0  9991
2 46276  97.2383 287.8188 0001261 160.7537 199.3777 15.75970948273460
SALSAT
1 46495U 20068K   25211.53354219  .00007427  00000-0  31533-3 0  9995
2 46495  97.8641 191.9465 0010687 355.4255   4.6881 15.23351202266286
CubeSX-Sirius-HSE
1 47951U 21022V   25157.62701764  .07883385  25648-5  89537-3 0  9993
2 47951  97.4004  72.1904 0010275 223.9924 136.0557 16.36879307233400
CubeSX-HSE
1 47952U 21022W   25157.69972699  .06655353  25454-5  93288-3 0  9992
2 47952  97.3980  72.5414 0010307 219.3637 140.6911 16.34906352233436
GRBAlpha
1 47959U 21022AD  25160.45426279  .07940347  25506-5  90589-3 0  9995
2 47959  97.3899  75.6235 0011032 227.2558 132.7812 16.36806138232695
TUBIN
1 48900U 21059X   25211.82902298  .00054137  00000-0  55675-3 0  9990
2 48900  97.6775  25.3865 0003066  54.2553 305.8991 15.64719958228048
LEDSAT
1 49069U 21073D   25211.74793544  .00099045  00000-0  89532-3 0  9992
2 49069  97.3846 295.6675 0008612 236.5037 123.5401 15.67750046219436
CUTE
1 49263U 21088D   25211.16927135  .00014639  00000-0  26963-3 0  9990
2 49263  97.4478 288.9575 0007927  63.1616 297.0444 15.49235564212253
TeikyoSat 4
1 49396U 21102B   25211.58715696  .00002613  00000-0  17443-3 0  9999
2 49396  97.4070 248.1715 0011450 324.4612  35.5853 15.07821446204239
Z-Sat
1 49399U 21102E   25211.82020141  .00003877  00000-0  21186-3 0  9995
2 49399  97.3769 251.8140 0016223 287.6951  72.2510 15.14770029204739
KOSEN 1
1 49402U 21102H   25211.67099093  .00007055  00000-0  32170-3 0  9992
2 49402  97.3670 255.4762 0014039 257.9621 102.0041 15.20859003205056
HO-113
1 50466U 21131B   25211.87175495  .00000522  00000-0  17656-3 0  9993
2 50466  98.5104 300.9748 0003855   0.1074   0.0115 14.40864205188833
Foresail-1
1 52766U 22057AL  25176.64799660  .13857605  27391-5  25307-3 0  9992
2 52766  97.5832 331.2310 0012137 233.7199 258.4922 16.46795272172486
SNUGLITE 2
1 52899U 22065F   25211.36571553  .00001100  00000-0  22231-3 0  9999
2 52899  98.1753 352.8645 0006678 321.8066  38.2662 14.63310660163911
UmKA 1 (RS40S)
1 57172U 23091G   25211.84070170  .00006592  00000-0  34743-3 0  9991
2 57172  97.5544 266.9620 0015131 152.2943 207.9098 15.15828344115245
CubeBel-2 (EU11S)
1 57175U 23091K   25211.86318253  .00009962  00000-0  46314-3 0  9994
2 57175  97.5542 268.4534 0012780 157.4996 202.6802 15.20103292115349
VERONIKA
1 58261U 23174F   25211.84957542  .00532714  11461-3  15446-2 0  9994
2 58261  97.4018 301.7834 0008389 240.2120 119.8320 15.92886975 96771
ENSO
1 58470U 23185J   25211.87802425  .00079211  00000-0  92841-3 0  9997
2 58470  97.3692 288.8263 0006123 238.0223 122.0439 15.61242282 93029
EIRSAT-1
1 58472U 23185L   25211.84803679  .00246959  00000-0  12467-2 0  9998
2 58472  97.3618 291.8337 0006855 237.1994 122.8614 15.80916604 93224
SONATE-2
1 59112U 24043Q   25211.87978663  .00018332  00000-0  50444-3 0  9993
2 59112  97.5193 344.1558 0009542 292.7124  67.3111 15.37187927 78218
MO-122
1 60209U 24125G   25211.55539268  .00017833  00000-0  48188-3 0  9999
2 60209  97.2747  62.6431 0016650 317.8593  42.1371 15.37655450 59789
GRBBeta
1 60237U 24128C   25211.50375560  .00003142  00000-0  24057-3 0  9998
2 60237  61.9900 261.9533 0055211  68.3341 292.3617 15.02989790 57858
Curium One
1 60242U 24128H   25211.45207811  .00005657  00000-0  39058-3 0  9991
2 60242  61.9798 259.6469 0055238  64.5673 296.1121 15.05719955 57899
ROBUSTA-3A
1 60243U 24128J   25211.47076211  .00005626  00000-0  39402-3 0  9991
2 60243  61.9871 260.5825 0054233  62.2453 298.4124 15.05240247 57884
CatSat
1 60246U 24125J   25211.54731735  .00016813  00000-0  54399-3 0  9990
2 60246  97.2551  61.2533 0039886 272.3802  87.2874 15.31334211 57784
HYPERVIEW-1G (RS66S)
1 61772U 24199AP  25211.86929301  .00023578  00000-0  64436-3 0  9998
2 61772  97.3461  80.6642 0013079  17.8302 342.3399 15.37302577 84838
AO-123
1 61781U 24199AY  25211.83500009  .00007472  00000-0  26745-3 0  9991
2 61781  97.3480  78.9320 0016136  22.6459 337.5490 15.28940014 84715
ZIMSAT 2
1 61783U 24199BA  25211.85557862  .00046806  00000-0  10212-2 0  9999
2 61783  97.3431  81.7029 0011997  14.8084 345.3513 15.44009403 88058
HADES-R (SO-124)
1 62690U 25009CK  25211.47137749  .00040915  00000-0  13106-2 0  9994
2 62690  97.4067 292.1816 0002043 241.4311 118.6726 15.32257507 29933
HYDRA-T
1 62692U 25009CM  25211.18594364  .00041691  00000-0  13220-2 0  9993
2 62692  97.4075 291.9528 0001951 235.7295 124.3762 15.32578098 29895
JINJUSat 1B
1 63210U 25052A   25211.24923987  .00011680  00000-0  52047-3 0  9998
2 63210  97.4348 104.7459 0005737 129.5227 230.6517 15.21572680 20956
NUSHSAT 1
1 63211U 25052B   25211.69520074  .00012829  00000-0  56554-3 0  9991
2 63211  97.4333 105.2018 0005720 131.6052 228.5675 15.21917823 21022
TEVEL2-4
1 63213U 25052D   25211.25908490  .00012558  00000-0  55953-3 0  9998
2 63213  97.4251 104.5680 0004350 142.5373 217.6167 15.21564490 20959
TEVEL2-5
1 63214U 25052E   25211.19465377  .00012444  00000-0  55494-3 0  9998
2 63214  97.4250 104.5018 0004349 142.8791 217.2747 15.21535513 20942
TEVEL2-6
1 63215U 25052F   25211.59273234  .00012693  00000-0  56644-3 0  9996
2 63215  97.4251 104.8887 0004431 143.1657 216.9884 15.21505559 21001
TEVEL2-1
1 63217U 25052H   25211.21662993  .00011377  00000-0  51174-3 0  9992
2 63217  97.4228 104.4305 0004191 154.1422 206.0024 15.21264330 20940
TEVEL2-2
1 63218U 25052J   25211.21687159  .00011293  00000-0  50792-3 0  9996
2 63218  97.4228 104.4318 0004209 154.6586 205.4857 15.21267780 20940
TEVEL2-3
1 63219U 25052K   25211.61186933  .00011613  00000-0  52217-3 0  9995
2 63219  97.4228 104.8197 0004172 154.0354 206.1092 15.21269786 21001
TEVEL2-8
1 63237U 25052AD  25211.65240486  .00011906  00000-0  55466-3 0  9997
2 63237  97.4293 104.7281 0007803 182.6899 177.4296 15.20025269 20999
TEVEL2-9
1 63238U 25052AE  25211.59110814  .00011799  00000-0  55090-3 0  9995
2 63238  97.4291 104.6604 0007894 183.0660 177.0528 15.19951287 20986
TEVEL2-7
1 63239U 25052AF  25211.26499686  .00011163  00000-0  52203-3 0  9995
2 63239  97.4292 104.3308 0007833 184.5849 175.5315 15.19911318 20937
HYDRA-W
1 63490U 25052BL  25211.61743422  .00028346  00000-0  11169-2 0  9999
2 63490  97.4239 105.2919 0011422 180.3709 179.7522 15.25496552 21036
HADES-ICM (SO-125)
1 63492U 25052BN  25211.64885693  .00027032  00000-0  10837-2 0  9993
2 63492  97.4244 105.2603 0011530 184.9601 175.1525 15.24926142 21030
